�������l�o���
Date,Time,MP-1(��Sv/h),MP-2(��Sv/h),MP-3(��Sv/h),MP-4(��Sv/h),MP-5(��Sv/h),MP-6(��Sv/h),MP-7(��Sv/h),MP-8(��Sv/h),����,����(m/s),���J
2016/10/24,00:00,1.168,1.980,1.364,2.198,1.548,0.609,1.084,0.996,�k��,3.2,��
2016/10/24,00:10,1.171,1.978,1.365,2.199,1.547,0.609,1.081,0.994,�k��,1.2,��
2016/10/24,00:20,1.169,1.978,1.364,2.197,1.546,0.610,1.082,0.993,-,CALM,��
2016/10/24,00:30,1.169,1.978,1.364,2.200,1.548,0.609,1.083,0.996,�k�k��,3.1,��
2016/10/24,00:40,1.172,1.976,1.364,2.194,1.545,0.609,1.082,0.994,�k�k��,2.6,��
2016/10/24,00:50,1.170,1.977,1.361,2.196,1.546,0.608,1.083,0.995,�k�k��,4.7,��
2016/10/24,01:00,1.171,1.978,1.365,2.196,1.544,0.610,1.083,0.995,�k�k��,6.0,��
2016/10/24,01:10,1.168,1.979,1.365,2.197,1.545,0.609,1.079,0.994,�k�k��,5.6,��
2016/10/24,01:20,1.170,1.977,1.364,2.197,1.547,0.608,1.081,0.995,�k�k��,6.0,��
2016/10/24,01:30,1.170,1.973,1.363,2.198,1.547,0.610,1.082,0.993,�k�k��,4.5,��
2016/10/24,01:40,1.171,1.974,1.362,2.195,1.545,0.610,1.080,0.995,�k�k��,4.2,��
2016/10/24,01:50,1.170,1.978,1.363,2.195,1.546,0.608,1.081,0.993,�k,4.1,��
2016/10/24,02:00,1.169,1.977,1.363,2.197,1.544,0.609,1.083,0.993,�k,4.4,��
2016/10/24,02:10,1.168,1.977,1.363,2.192,1.544,0.611,1.080,0.995,�k,4.4,��
2016/10/24,02:20,1.169,1.977,1.361,2.196,1.547,0.610,1.080,0.994,�k�k��,4.2,��
2016/10/24,02:30,1.169,1.974,1.362,2.197,1.544,0.609,1.082,0.995,�k,4.4,��
2016/10/24,02:40,1.169,1.976,1.359,2.196,1.545,0.610,1.081,0.993,�k�k��,3.4,��
2016/10/24,02:50,1.169,1.975,1.360,2.196,1.545,0.609,1.083,0.994,�k��,3.5,��
2016/10/24,03:00,1.172,1.974,1.361,2.194,1.544,0.610,1.079,0.994,�k��,4.7,��
2016/10/24,03:10,1.168,1.972,1.361,2.196,1.543,0.608,1.080,0.993,�k��,5.3,��
2016/10/24,03:20,1.170,1.973,1.361,2.195,1.545,0.607,1.079,0.994,�k��,5.5,��
2016/10/24,03:30,1.166,1.972,1.364,2.190,1.546,0.609,1.080,0.994,�k��,3.8,��
2016/10/24,03:40,1.166,1.974,1.360,2.197,1.544,0.610,1.080,0.994,�k��,4.4,��
2016/10/24,03:50,1.167,1.972,1.359,2.193,1.546,0.608,1.080,0.995,�k��,5.8,��
2016/10/24,04:00,1.167,1.973,1.360,2.192,1.544,0.609,1.081,0.995,�k��,7.1,��
2016/10/24,04:10,1.167,1.973,1.359,2.194,1.544,0.609,1.080,0.994,�k��,7.2,��
2016/10/24,04:20,1.169,1.974,1.360,2.197,1.544,0.607,1.080,0.994,�k�k��,7.8,��
2016/10/24,04:30,1.167,1.974,1.360,2.197,1.542,0.608,1.078,0.994,�k�k��,6.3,��
2016/10/24,04:40,1.167,1.976,1.362,2.195,1.541,0.608,1.079,0.994,�k�k��,5.5,��
2016/10/24,04:50,1.167,1.973,1.361,2.192,1.544,0.607,1.080,0.993,�k�k��,5.2,��
2016/10/24,05:00,1.167,1.973,1.360,2.194,1.541,0.608,1.080,0.993,�k��,3.5,��
2016/10/24,05:10,1.166,1.972,1.360,2.195,1.540,0.608,1.080,0.995,�k��,3.8,��
2016/10/24,05:20,1.166,1.973,1.360,2.193,1.543,0.608,1.081,0.993,�k��,4.2,��
2016/10/24,05:30,1.166,1.974,1.361,2.194,1.544,0.608,1.078,0.993,�k��,6.6,��
2016/10/24,05:40,1.168,1.974,1.359,2.194,1.545,0.607,1.079,0.995,�k�k��,6.3,��
2016/10/24,05:50,1.166,1.970,1.359,2.194,1.543,0.606,1.078,0.992,�k�k��,4.1,��
2016/10/24,06:00,1.167,1.972,1.358,2.198,1.542,0.607,1.080,0.993,�k��,4.4,��
2016/10/24,06:10,1.165,1.969,1.358,2.192,1.541,0.609,1.079,0.993,�k��,3.8,��
2016/10/24,06:20,1.168,1.973,1.359,2.193,1.542,0.610,1.080,0.994,�k��,4.1,��
2016/10/24,06:30,1.166,1.971,1.358,2.191,1.541,0.607,1.080,0.994,�k��,4.4,��
2016/10/24,06:40,1.166,1.971,1.358,2.192,1.541,0.609,1.080,0.993,�k��,3.8,��
2016/10/24,06:50,1.167,1.973,1.361,2.189,1.542,0.607,1.079,0.993,�k��,4.4,��
2016/10/24,07:00,1.166,1.974,1.357,2.195,1.543,0.606,1.080,0.993,�k��,4.2,��
2016/10/24,07:10,1.165,1.974,1.359,2.190,1.545,0.609,1.080,0.993,���k��,4.1,��
2016/10/24,07:20,1.165,1.971,1.360,2.196,1.542,0.608,1.082,0.994,���k��,3.9,��
2016/10/24,07:30,1.166,1.973,1.358,2.194,1.543,0.609,1.082,0.995,���k��,3.3,��
2016/10/24,07:40,1.166,1.971,1.349,2.194,1.543,0.608,1.083,0.993,��,2.5,��
2016/10/24,07:50,1.167,1.973,1.351,2.198,1.546,0.609,1.082,0.994,���k��,2.1,��
2016/10/24,08:00,1.168,1.972,1.356,2.199,1.544,0.608,1.081,0.995,���k��,1.8,��
2016/10/24,08:10,1.170,1.970,1.360,2.197,1.542,0.607,1.081,0.995,�k��,1.8,��
2016/10/24,08:20,1.167,1.974,1.357,2.197,1.543,0.609,1.081,0.996,���k��,2.1,��
2016/10/24,08:30,1.170,1.974,1.357,2.200,1.546,0.610,1.081,0.996,���k��,2.2,��
2016/10/24,08:40,1.172,1.976,1.361,2.198,1.546,0.608,1.079,0.995,�k�k��,2.8,��
2016/10/24,08:50,1.170,1.977,1.362,2.198,1.544,0.609,1.083,0.995,�k��,3.0,��
2016/10/24,09:00,1.170,1.977,1.361,2.198,1.546,0.610,1.079,0.995,�k��,2.7,��
2016/10/24,09:10,1.171,1.974,1.357,2.201,1.546,0.609,1.077,0.995,�k��,1.2,��
2016/10/24,09:20,1.171,1.979,1.355,2.200,1.548,0.610,1.080,0.994,�쐼,0.8,��
2016/10/24,09:30,1.170,1.975,1.357,2.201,1.547,0.609,1.079,0.998,���k��,0.7,��
2016/10/24,09:40,1.169,1.972,1.357,2.199,1.543,0.611,1.079,0.997,�k��,1.4,��
2016/10/24,09:50,1.170,1.970,1.358,2.199,1.546,0.611,1.081,0.997,�k��,6.6,��
2016/10/24,10:00,1.172,1.970,1.356,2.201,1.548,0.610,1.080,0.996,�k��,7.8,��
2016/10/24,10:10,1.171,1.973,1.357,2.204,1.548,0.610,1.082,0.999,�k��,5.8,��
2016/10/24,10:20,1.172,1.972,1.353,2.201,1.549,0.605,1.080,0.996,���k��,4.6,��
2016/10/24,10:30,1.174,1.974,1.352,2.201,1.548,0.600,1.083,0.997,��,3.1,��
2016/10/24,10:40,1.169,1.974,1.360,2.200,1.548,0.601,1.082,0.995,���쐼,2.3,��
2016/10/24,10:50,1.172,1.975,1.358,2.205,1.549,0.601,1.084,0.995,��,2.8,��
2016/10/24,11:00,1.174,1.978,1.358,2.203,1.550,0.602,1.083,0.993,���k��,3.8,��
2016/10/24,11:10,1.174,1.975,1.360,2.202,1.549,0.601,1.081,0.995,��,2.4,��
2016/10/24,11:20,1.174,1.978,1.361,2.202,1.549,0.601,1.083,0.999,��,5.0,��
2016/10/24,11:30,1.172,1.980,1.361,2.205,1.550,0.600,1.080,0.996,�k��,6.3,��
2016/10/24,11:40,1.173,1.980,1.363,2.205,1.549,0.602,1.082,0.996,�k��,6.9,��
2016/10/24,11:50,1.175,1.977,1.363,2.202,1.549,0.605,1.083,0.994,�k��,5.8,��
2016/10/24,12:00,1.173,1.980,1.363,2.203,1.554,0.605,1.085,0.999,�k�k��,4.6,��
2016/10/24,12:10,1.175,1.982,1.361,2.205,1.554,0.605,1.085,0.995,��,3.8,��
2016/10/24,12:20,1.174,1.976,1.361,2.206,1.555,0.604,1.083,0.998,���k��,4.2,��
2016/10/24,12:30,1.176,1.976,1.361,2.208,1.555,0.605,1.084,0.996,���k��,7.2,��
2016/10/24,12:40,1.176,1.983,1.362,2.210,1.551,0.606,1.084,0.994,�k��,6.6,��
2016/10/24,12:50,1.173,1.978,1.363,2.209,1.552,0.607,1.083,0.996,��,7.2,��
2016/10/24,13:00,1.173,1.975,1.358,2.206,1.555,0.604,1.083,0.996,���k��,6.1,��
2016/10/24,13:10,1.177,1.977,1.362,2.210,1.552,0.603,1.083,0.994,���k��,6.4,��
2016/10/24,13:20,1.173,1.978,1.362,2.208,1.556,0.604,1.086,0.997,���k��,5.5,��
2016/10/24,13:30,1.174,1.971,1.365,2.207,1.555,0.604,1.085,0.995,�k��,5.0,��
2016/10/24,13:40,1.174,1.975,1.359,2.209,1.553,0.603,1.084,0.994,�k��,5.3,��
2016/10/24,13:50,1.173,1.976,1.362,2.209,1.553,0.601,1.083,0.994,�k��,5.2,��
2016/10/24,14:00,1.175,1.976,1.363,2.211,1.554,0.608,1.084,0.996,�k��,7.1,��
2016/10/24,14:10,1.173,1.979,1.359,2.210,1.557,0.611,1.085,0.994,�k��,6.9,��
2016/10/24,14:20,1.172,1.977,1.363,2.209,1.552,0.611,1.084,0.993,�k��,6.1,��
2016/10/24,14:30,1.173,1.973,1.365,2.211,1.554,0.611,1.086,0.996,���k��,5.0,��
2016/10/24,14:40,1.172,1.982,1.365,2.208,1.556,0.612,1.084,0.994,�k��,4.9,��
2016/10/24,14:50,1.175,1.976,1.362,2.209,1.555,0.612,1.083,0.994,�k��,8.2,��
2016/10/24,15:00,1.177,1.980,1.363,2.209,1.553,0.611,1.083,0.994,�k��,6.9,��
2016/10/24,15:10,1.175,1.975,1.363,2.210,1.556,0.613,1.084,0.995,�k��,4.9,��
2016/10/24,15:20,1.176,1.980,1.364,2.209,1.553,0.613,1.083,0.994,�k��,6.1,��
2016/10/24,15:30,1.177,1.982,1.365,2.209,1.551,0.613,1.084,0.995,�k��,5.2,��
2016/10/24,15:40,1.175,1.982,1.362,2.209,1.552,0.615,1.084,0.994,�k��,4.5,��
2016/10/24,15:50,1.176,1.982,1.364,2.212,1.553,0.613,1.084,0.995,�k��,3.1,��
2016/10/24,16:00,1.177,1.984,1.366,2.211,1.557,0.614,1.084,0.996,�k��,4.7,��
2016/10/24,16:10,1.176,1.985,1.367,2.211,1.554,0.616,1.083,0.998,�k��,6.1,��
2016/10/24,16:20,1.172,1.986,1.364,2.212,1.551,0.612,1.082,0.997,�k��,6.4,��
2016/10/24,16:30,1.176,1.984,1.365,2.205,1.552,0.613,1.084,0.997,�k��,7.4,��
2016/10/24,16:40,1.176,1.984,1.363,2.209,1.555,0.613,1.083,0.996,�k��,6.0,��
2016/10/24,16:50,1.175,1.985,1.366,2.207,1.553,0.614,1.084,0.996,�k��,5.8,��
2016/10/24,17:00,1.173,1.986,1.366,2.205,1.553,0.614,1.085,0.998,���k��,5.8,��
2016/10/24,17:10,1.172,1.986,1.370,2.208,1.555,0.611,1.085,0.997,���k��,5.8,��
2016/10/24,17:20,1.172,1.985,1.364,2.205,1.556,0.613,1.083,0.997,���k��,5.8,��
2016/10/24,17:30,1.173,1.988,1.364,2.209,1.555,0.613,1.085,0.996,���k��,4.7,��
2016/10/24,17:40,1.171,1.984,1.364,2.207,1.555,0.612,1.086,0.994,���k��,4.1,��
2016/10/24,17:50,1.171,1.987,1.363,2.206,1.555,0.612,1.082,0.995,�k��,4.6,��
2016/10/24,18:00,1.174,1.983,1.365,2.207,1.555,0.612,1.081,0.996,�k��,4.6,��
2016/10/24,18:10,1.173,1.986,1.363,2.205,1.554,0.612,1.086,0.996,���k��,4.2,��
2016/10/24,18:20,1.172,1.985,1.363,2.208,1.554,0.613,1.082,0.994,���k��,3.8,��
2016/10/24,18:30,1.173,1.983,1.364,2.201,1.554,0.612,1.083,0.994,��,3.9,��
2016/10/24,18:40,1.171,1.982,1.365,2.202,1.553,0.610,1.081,0.994,��,5.5,��
2016/10/24,18:50,1.173,1.983,1.364,2.206,1.554,0.612,1.083,0.994,���쐼,4.4,��
2016/10/24,19:00,1.170,1.984,1.363,2.206,1.554,0.611,1.084,0.996,���쐼,5.8,��
2016/10/24,19:10,1.171,1.982,1.363,2.207,1.549,0.611,1.083,0.996,���쐼,7.4,��
2016/10/24,19:20,1.171,1.984,1.360,2.206,1.553,0.610,1.084,0.996,���쐼,7.4,��
2016/10/24,19:30,1.171,1.984,1.362,2.206,1.553,0.612,1.082,0.995,���쐼,6.7,��
2016/10/24,19:40,1.171,1.982,1.362,2.202,1.550,0.613,1.081,0.994,���쐼,7.1,��
2016/10/24,19:50,1.171,1.984,1.363,2.207,1.552,0.610,1.084,0.995,���쐼,6.3,��
2016/10/24,20:00,1.170,1.982,1.362,2.207,1.555,0.610,1.083,0.993,���쐼,6.3,��
2016/10/24,20:10,1.171,1.983,1.364,2.206,1.551,0.610,1.083,0.994,���쐼,5.8,��
2016/10/24,20:20,1.170,1.982,1.363,2.207,1.553,0.611,1.084,0.997,���쐼,5.3,��
2016/10/24,20:30,1.170,1.985,1.363,2.203,1.549,0.610,1.082,0.996,��,5.8,��
2016/10/24,20:40,1.170,1.980,1.362,2.202,1.553,0.609,1.082,0.996,��,6.3,��
2016/10/24,20:50,1.170,1.984,1.362,2.204,1.549,0.610,1.083,0.994,���쐼,6.4,��
2016/10/24,21:00,1.170,1.981,1.363,2.206,1.553,0.611,1.082,0.995,��,6.3,��
2016/10/24,21:10,1.170,1.981,1.361,2.203,1.549,0.611,1.080,0.995,���쐼,4.9,��
2016/10/24,21:20,1.170,1.981,1.361,2.204,1.550,0.611,1.082,0.996,�쐼,3.2,��
2016/10/24,21:30,1.171,1.981,1.362,2.203,1.550,0.611,1.081,0.995,���쐼,4.1,��
2016/10/24,21:40,1.171,1.980,1.359,2.201,1.548,0.612,1.083,0.996,���쐼,3.1,��
2016/10/24,21:50,1.168,1.978,1.362,2.204,1.551,0.610,1.082,0.995,���쐼,3.8,��
2016/10/24,22:00,1.171,1.980,1.361,2.204,1.551,0.611,1.084,0.993,���쐼,3.6,��
2016/10/24,22:10,1.171,1.978,1.360,2.203,1.550,0.611,1.082,0.993,���쐼,2.7,��
2016/10/24,22:20,1.171,1.977,1.361,2.200,1.550,0.611,1.081,0.995,��,3.0,��
2016/10/24,22:30,1.170,1.977,1.362,2.200,1.549,0.610,1.080,0.995,���쐼,3.8,��
2016/10/24,22:40,1.171,1.979,1.364,2.201,1.549,0.610,1.080,0.995,���쐼,4.7,��
2016/10/24,22:50,1.170,1.981,1.358,2.200,1.550,0.610,1.082,0.995,���쐼,3.6,��
2016/10/24,23:00,1.169,1.980,1.360,2.203,1.547,0.609,1.080,0.996,���쐼,4.2,��
2016/10/24,23:10,1.171,1.980,1.357,2.202,1.551,0.608,1.082,0.994,���쐼,4.2,��
2016/10/24,23:20,1.171,1.979,1.359,2.202,1.549,0.610,1.082,0.996,��,4.9,��
2016/10/24,23:30,1.170,1.980,1.359,2.199,1.550,0.610,1.082,0.992,��,5.6,��
2016/10/24,23:40,1.170,1.979,1.358,2.202,1.548,0.609,1.081,0.995,��,6.0,��
2016/10/24,23:50,1.172,1.981,1.359,2.203,1.552,0.612,1.081,0.996,���쐼,5.2,��
